カタログに戻る

FENGYUN 1C DEB

運用中PO
NORAD 30090·DEBRIS·🇨🇳 China

打ち上げ May 10, 1999 から Taiyuan Satellite Launch Center

Loading…

次のパス (今後24時間)

TLE

最新Source: Space-Track

元期: Sep 14, 2026, 19:38 UTC

1 30090U 99025QT  26257.81870007  .00000452  00000-0  19296-3 0  9991
2 30090  99.4108  97.8901 0057740  42.0351 331.4610 14.29544294 22137

AllMySatでFENGYUN 1C DEBをリアルタイム追跡

Download on the App Store